Location: Newark
(44.1667°N, 8.2500°E)
Time: 21:12:14
(UTC+00:00)

S-56A Canister/Altair - Pass Details

Date: 19 December 2019
Orbit: 634 x 2498 km, 38.9° (Epoch: 25 January)

Event Time Altitude Azimuth Distance (km) Brightness Sun altitude
Rises 11:09:17 0° 277° (W) 5,718 11.9 22.3°
Reaches altitude 10° 11:12:49 10° 274° (W) 4,875 11.6 22.4°
Maximum altitude 11:26:57 61° 200° (SSW) 2,737 11.2 22.4°
Drops below altitude 10° 11:41:03 10° 125° (SE) 4,852 12.1 22.3°
Sets 11:44:34 0° 121° (ESE) 5,690 12.3 22.3°
